Overview Statistics Trail Chart Weather Telemetry Raw packets
 

This is the latest recevied weather packets stored in our database for station/object HB9FHL-13. If no packets are shown the sender has not sent any weather packets the latest 10 day(s).

<< 42 43 44 45 46 47 48 >>
Time Temp. Humidity Pressure Rain* Wind** Luminosity Snow
1788432744 22.22° C - 1028 hPa 0 mm - - -
1788432443 21.67° C - 1024.6 hPa 0 mm - - -
1788432143 22.78° C - 1026.6 hPa 0 mm - - -
1788431842 21.67° C - 1025.2 hPa 0 mm - - -
1788431542 21.67° C - 1029.1 hPa 0 mm - - -
1788431238 21.67° C - 1026.9 hPa 0 mm - - -
1788431017 21.67° C - 1026.5 hPa 0 mm - - -
1788430937 21.67° C - 1026.5 hPa 0 mm - - -
1788430637 21.67° C - 1022.6 hPa 0 mm - - -
1788430336 21.67° C - 1028.2 hPa 0 mm - - -
1788430036 21.67° C - 1026.7 hPa 0 mm - - -
1788429735 21.67° C - 1022.3 hPa 0 mm - - -
1788429435 21.67° C - 1027 hPa 0 mm - - -
1788429134 21.11° C - 1024.5 hPa 0 mm - - -
1788428834 21.11° C - 1022.2 hPa 0 mm - - -
1788428581 20.56° C - 1026.9 hPa 0 mm - - -
1788428534 20.56° C - 1026.9 hPa 0 mm - - -
1788428233 21.11° C - 1024.5 hPa 0 mm - - -
1788427932 21.11° C - 1026.4 hPa 0 mm - - -
1788427632 20.56° C - 1025.5 hPa 0 mm - - -
1788427331 20.56° C - 1024.2 hPa 0 mm - - -
1788427074 20.56° C - 1024.5 hPa 0 mm - - -
1788427031 20.56° C - 1024.5 hPa 0 mm - - -
1788426730 20.56° C - 1025.1 hPa 0 mm - - -
1788426430 19.44° C - 1026.6 hPa 0 mm - - -

* Rain since midnight (hover to see other rain measurements)
** Current wind speed in m/s (hover to see current wind gust speed)